Location: Caltech
(34.1382°N, 118.1253°W)
Time: 13:08:54
(UTC-07:00)

Cosmos 1939 Rocket - Visible Passes

Search period start: 29 August 2014 00:00
Search period end: 08 September 2014 00:00
Orbit: 543 x 593 km, 97.6° (Epoch: 29 August)

Date Brightness Start Highest point End Pass type
(mag) Time Alt. Az. Time Alt. Az. Time Alt. Az.
29 Aug 5.0 20:30:32 13° ENE 20:30:32 13° ENE 20:32:17 10° NE visible
29 Aug 4.8 22:06:38 29° NW 22:06:38 29° NW 22:09:01 10° NNW visible
30 Aug 5.0 20:31:54 13° ENE 20:31:54 13° ENE 20:33:37 10° NE visible
30 Aug 5.0 22:08:00 27° NW 22:08:00 27° NW 22:10:13 10° NNW visible
31 Aug 4.9 20:33:16 14° ENE 20:33:16 14° ENE 20:34:56 10° NE visible
31 Aug 5.1 22:09:22 25° NW 22:09:22 25° NW 22:11:26 10° NNW visible
01 Sep 4.9 20:34:38 14° ENE 20:34:38 14° ENE 20:36:15 10° NE visible
01 Sep 5.2 22:10:44 23° NW 22:10:44 23° NW 22:12:38 10° NNW visible
02 Sep 4.9 20:36:01 14° NE 20:36:01 14° NE 20:37:33 10° NE visible
02 Sep 5.3 22:12:06 22° NW 22:12:06 22° NW 22:13:49 10° NNW visible
03 Sep 5.0 20:37:23 14° NE 20:37:23 14° NE 20:38:51 10° NNE visible
03 Sep 5.4 22:13:28 20° NW 22:13:28 20° NW 22:15:01 10° NNW visible
04 Sep 5.0 20:38:45 14° NE 20:38:45 14° NE 20:40:08 10° NNE visible
04 Sep 5.6 22:14:50 19° NW 22:14:50 19° NW 22:16:12 10° NNW visible
05 Sep 5.0 20:40:07 14° NE 20:40:07 14° NE 20:41:25 10° NNE visible
05 Sep 5.7 22:16:12 17° NW 22:16:12 17° NW 22:17:23 10° NNW visible
06 Sep 5.0 20:41:29 14° NE 20:41:29 14° NE 20:42:41 10° NNE visible
06 Sep 5.8 22:17:34 16° NW 22:17:34 16° NW 22:18:34 10° NNW visible
07 Sep 5.0 20:42:51 14° NE 20:42:51 14° NE 20:43:57 10° NNE visible
07 Sep 5.9 22:18:56 15° NW 22:18:56 15° NW 22:19:45 10° NW visible
